Philadelphia, PA

3:22 PM EST on December 06, 2016 (GMT -0500)
Philadelphia International

Weather History for KPHL - September, 2013

Change the Weather History Date:

Monday, September 30, 2013

  Actual Average Record
Temperature  
Mean Temperature 64 °F 63 °F  
Max Temperature 74 °F 72 °F 88 °F (1881)
Min Temperature 53 °F 54 °F 38 °F (1942)
Degree Days  
Heating Degree Days 1 4  
Month to date heating degree days 36 35  
Since 1 July heating degree days 36 38  
Cooling Degree Days 0 2  
Month to date cooling degree days 130 161  
Year to date cooling degree days 1346 1278  
Growing Degree Days 13 (Base 50)    
Moisture  
Dew Point 49 °F    
Average Humidity 61    
Maximum Humidity 83    
Minimum Humidity 38    
Precipitation  
Precipitation 0.00 in 0.13 in 2.41 in (2010)
Month to date precipitation 3.26 3.78  
Year to date precipitation 45.50 31.80  
Snow  
Snow 0.00 in 0.00 in 0.00 in ()
Month to date snowfall 0.0 0.0  
Since 1 July snowfall 0.0 0.0  
Since 1 September snowfall 0.0 0.0  
Snow Depth 0.00 in    
Sea Level Pressure  
Sea Level Pressure 30.05 in    
Wind  
Wind Speed 6 mph (NW)    
Max Wind Speed 9 mph    
Max Gust Speed 17 mph    
Visibility 10 miles    
Events      
T = Trace of Precipitation, MM = Missing Value Source: NWS Daily Summary

Daily Weather History Graph

Daily Weather History Graph

Search for Another Location

Airport or City:

Trip Planner

Search our weather history database for the weather conditions in past years. The results will help you decide how hot, cold, wet, or windy it might be!

Date:

Astronomy

Sep. 30, 2013 Rise Set
Actual Time 6:56 AM EDT 6:44 PM EDT
Civil Twilight 6:29 AM EDT 7:11 PM EDT
Nautical Twilight 5:58 AM EDT 7:42 PM EDT
Astronomical Twilight 5:26 AM EDT 8:14 PM EDT
Moon 2:31 AM EDT (9/30) 4:13 PM EDT (9/30)
Length of Visible Light 12h 42m
Length of Day
11h 48m
Waning Crescent, 19% of the Moon is Illuminated
Sep 30
Waning Crescent
Oct 4
New
Oct 11
First Quarter
Oct 18
Full
Oct 26
Last Quarter

Hourly Weather History & Observations

Time (EDT) Temp. Dew Point Humidity Pressure Visibility Wind Dir Wind Speed Gust Speed Precip Events Conditions
12:54 AM 57.9 °F 50.0 °F 75% 30.09 in 10.0 mi NNE 3.5 mph - N/A   Partly Cloudy
1:54 AM 57.0 °F 50.0 °F 77% 30.10 in 10.0 mi NNW 5.8 mph - N/A   Scattered Clouds
2:54 AM 55.9 °F 50.0 °F 80% 30.08 in 10.0 mi NNW 5.8 mph - N/A   Partly Cloudy
3:54 AM 55.9 °F 50.0 °F 80% 30.08 in 10.0 mi NNW 3.5 mph - N/A   Partly Cloudy
4:54 AM 55.0 °F 48.9 °F 80% 30.08 in 10.0 mi Calm Calm - N/A   Partly Cloudy
5:54 AM 53.1 °F 48.0 °F 83% 30.08 in 10.0 mi NNW 5.8 mph - N/A   Scattered Clouds
6:54 AM 54.0 °F 48.9 °F 83% 30.09 in 10.0 mi NNW 5.8 mph - N/A   Scattered Clouds
7:54 AM 55.9 °F 50.0 °F 80% 30.10 in 10.0 mi NNW 5.8 mph - N/A   Scattered Clouds
8:54 AM 60.1 °F 51.1 °F 72% 30.10 in 10.0 mi NNW 3.5 mph - N/A   Scattered Clouds
9:54 AM 66.0 °F 48.9 °F 54% 30.09 in 10.0 mi Variable 3.5 mph - N/A   Mostly Cloudy
10:54 AM 69.1 °F 46.9 °F 45% 30.09 in 10.0 mi North 5.8 mph - N/A   Mostly Cloudy
11:54 AM 72.0 °F 46.9 °F 41% 30.07 in 10.0 mi East 5.8 mph - N/A   Mostly Cloudy
12:54 PM 72.0 °F 46.9 °F 41% 30.04 in 10.0 mi NW 9.2 mph - N/A   Mostly Cloudy
1:54 PM 72.0 °F 46.0 °F 40% 30.03 in 10.0 mi NNW 6.9 mph - N/A   Mostly Cloudy
2:54 PM 73.0 °F 48.9 °F 42% 30.02 in 10.0 mi WNW 9.2 mph - N/A   Mostly Cloudy
3:54 PM 73.0 °F 46.9 °F 39% 30.00 in 10.0 mi WNW 9.2 mph 17.3 mph N/A   Scattered Clouds
4:54 PM 73.0 °F 48.0 °F 41% 30.00 in 10.0 mi WNW 5.8 mph - N/A   Scattered Clouds
5:54 PM 72.0 °F 46.0 °F 40% 30.00 in 10.0 mi WNW 6.9 mph - N/A   Scattered Clouds
6:54 PM 71.1 °F 46.9 °F 42% 30.00 in 10.0 mi WNW 6.9 mph - N/A   Scattered Clouds
7:54 PM 66.9 °F 48.0 °F 51% 30.01 in 10.0 mi West 5.8 mph - N/A   Scattered Clouds
8:54 PM 64.9 °F 51.1 °F 61% 30.02 in 10.0 mi WSW 8.1 mph - N/A   Partly Cloudy
9:54 PM 64.0 °F 51.1 °F 63% 30.03 in 10.0 mi West 3.5 mph - N/A   Clear
10:54 PM 60.1 °F 52.0 °F 75% 30.04 in 10.0 mi South 4.6 mph - N/A   Clear
11:54 PM 61.0 °F 53.1 °F 75% 30.04 in 10.0 mi South 3.5 mph - N/A   Clear